Location: General Nathan Twining Observatory
(34.5931°N, 106.8201°W)
Time: 16:02:06
(UTC-07:00)

ADEOS II - Visible Passes

Search period start: 02 March 2015 00:00
Search period end: 12 March 2015 01:00
Orbit: 801 x 802 km, 98.3° (Epoch: 02 March)

Date Brightness Start Highest point End Pass type
(mag) Time Alt. Az. Time Alt. Az. Time Alt. Az.
02 Mar 4.3 04:54:27 10° NE 04:58:45 26° E 05:03:10 10° SSE visible
03 Mar 5.1 04:29:44 10° ENE 04:32:18 14° E 04:35:12 10° ESE visible
04 Mar 2.3 05:41:09 10° NNE 05:46:27 79° ESE 05:51:42 10° S visible
05 Mar 3.4 05:15:15 10° NNE 05:20:14 43° E 05:25:14 10° S visible
06 Mar 4.5 04:49:48 10° NE 04:53:55 24° E 04:58:09 10° SSE visible
07 Mar 5.2 04:25:22 10° ENE 04:27:26 13° E 04:29:52 10° ESE visible
08 Mar 2.4 06:36:21 10° NNE 06:41:37 72° E 06:46:52 10° S visible
08 Mar 5.9 19:37:02 10° W 19:37:56 10° W 19:38:23 10° W visible
09 Mar 3.6 06:10:31 10° NNE 06:15:24 39° E 06:20:19 10° SSE visible
10 Mar 4.6 05:45:09 10° NE 05:49:03 22° E 05:53:06 10° SE visible
11 Mar 5.3 05:21:09 10° ENE 05:22:34 11° E 05:24:22 10° ESE visible
